Powrót do katalogu

ATLAS 5 CENTAUR DEB

AktywnyHEO
NORAD 46848·DEBRIS·🇺🇸 United States

Wystrzelony Oct 17, 2018 z Cape Canaveral Space Force Station

Loading…

Następne Przeloty (najbliższe 24 godziny)

TLE

ŚwieżeSource: Space-Track

Epoka: Sep 13, 2026, 14:39 UTC

1 46848U 18079DD  26256.61088814 -.00000150  00000-0  00000-0 0  9999
2 46848  13.3805  43.9347 4425567 292.5757  27.1498  1.79131134 38374

Śledź ATLAS 5 CENTAUR DEB w czasie rzeczywistym z AllMySat

Download on the App Store